This demonstration page uses our WeatherBlox Daily Observations layout. Learn more.

Left ArrowRight Arrow

44.8408, -93.29828

Hourly Observations for May 28, 2021

Temp ( °F °C ) Dew Point ( °F °C ) Humidity (%) Winds ( mph kmh ) Pressure ( in mb ) Visibility ( mi km ) Precip ( " mm )
12:09 am 00:09 Cloudy with Light Rain 41 5 38 3.3 89 89 NE 14 22 30.25 1024 7 11 0.00 0.00
12:15 am 00:15 Cloudy with Light Rain 41 5 39 3.9 93 93 NE 13 20 30.25 1024 7 11 0.01 0.25
12:24 am 00:24 Cloudy with Light Rain 41 5 39 3.9 93 93 NNE 10 17 30.25 1024 7 11 0.01 0.25
12:53 am 00:53 Cloudy with Light Rain 41 5 38 3.3 89 89 NNE 8 13 30.24 1024 7 11 0.02 0.51
1:53 am 01:53 Cloudy 41 5 37 2.8 86 86 NNE 9 15 30.23 1024 10 16 0.00 0.00
2:53 am 02:53 Cloudy with Light Rain 41 5 36 2.2 82 82 NE 8 13 30.22 1023 10 16 0.00 0.00
3:53 am 03:53 Cloudy 41 5 36 2.2 82 82 ENE 13 20 30.20 1023 10 16 0.00 0.00
4:53 am 04:53 Cloudy with Light Rain 39 3.9 36 2.2 89 89 NNE 9 15 30.22 1023 10 16 0.00 0.00
5:53 am 05:53 Cloudy 40 4.4 36 2.2 86 86 NE 7 11 30.23 1024 10 16 0.01 0.25
6:53 am 06:53 Mostly Cloudy 39 3.9 35 1.7 86 86 NNE 12 19 30.24 1024 10 16 0.00 0.00
7:53 am 07:53 Mostly Cloudy 40 4.4 33 0.6 77 77 NNE 9 15 30.25 1024 10 16 0.00 0.00
8:53 am 08:53 Partly Cloudy 44 6.7 33 0.6 65 65 NNE 9 15 30.26 1025 10 16 0.00 0.00
9:53 am 09:53 Partly Cloudy 46 7.8 32 0 58 58 ENE 8 13 30.28 1025 10 16 0.00 0.00
10:53 am 10:53 Mostly Sunny 49 9.4 32 0 52 52 VRB 3 6 30.27 1025 10 16 0.00 0.00
11:53 am 11:53 Mostly Sunny 53 11.7 29 -1.7 40 40 E 15 24 30.27 1025 10 16 0.00 0.00
12:53 pm 12:53 Mostly Sunny 54 12.2 30 -1.1 40 40 E 12 19 30.26 1025 10 16 0.00 0.00
1:53 pm 13:53 Mostly Sunny 57 13.9 32 0 39 39 E 9 15 30.24 1024 10 16 0.00 0.00
2:53 pm 14:53 Mostly Sunny 58 14.4 33 0.6 39 39 VRB 3 6 30.23 1024 10 16 0.00 0.00
3:53 pm 15:53 Mostly Sunny 59 15 32 0 36 36 E 9 15 30.22 1023 10 16 0.00 0.00
4:53 pm 16:53 Mostly Sunny 60 15.6 32 0 35 35 ENE 8 13 30.20 1023 10 16 0.00 0.00
5:53 pm 17:53 Mostly Sunny 60 15.6 30 -1.1 32 32 VRB 6 9 30.20 1023 10 16 0.00 0.00
6:53 pm 18:53 Sunny 60 15.6 32 0 35 35 E 3 6 30.20 1023 10 16 0.00 0.00
7:53 pm 19:53 Sunny 58 14.4 33 0.6 39 39 E 6 9 30.21 1023 10 16 0.00 0.00
8:53 pm 20:53 Mostly Clear 57 13.9 31 -0.6 37 37 Calm 30.21 1023 10 16 0.00 0.00
9:53 pm 21:53 Mostly Clear 55 12.8 34 1.1 45 45 Calm 30.21 1023 10 16 0.00 0.00
10:53 pm 22:53 Clear 51 10.6 38 3.3 61 61 W 3 6 30.21 1023 10 16 0.00 0.00
11:53 pm 23:53 Clear 50 10 42 5.6 74 74 Calm 30.21 1023 10 16 0.00 0.00

Powered by AerisWeather